Regional Weather Roundup
Issued by NWS State College, PA

Home | Current Version | Previous Version | Graphics & Text | Print | Product List | Glossary On
Versions: 1 2 3 4 5 6 7 8 9 10 11 12 13 14 15 16 17 18 19 20 21 22 23 24 25 26 27 28 29 30 31 32 33 34 35 36 37 38 39 40 41 42 43 44 45 46 47 48 49 50
000
ASUS41 KCTP 230810
RWRCTP

REGIONAL WEATHER ROUNDUP
NATIONAL WEATHER SERVICE STATE COLLEGE PA
400 AM EDT WED AUG 23 2017

Note: "fair" indicates few or no clouds below 12,000 feet with no
significant weather and/or obstructions to visibility.

* = STATION THAT DOES NOT REPORT PRECIPITATION /E.G. RAIN...SNOW...ETC/
    THUNDER OR FOG.

PAZ002>004-007>009-013>016-020>023-029>032-230900-
WESTERN PENNSYLVANIA

CITY           SKY/WX    TMP DP  RH WIND       PRES   REMARKS
ERIE           MOCLDY    69  54  58 NW12G20   29.88S
MEADVILLE      CLOUDY    62  57  83 W3        29.91S
FRANKLIN*      CLOUDY    61  57  88 W5        29.92R
NEW CASTLE     FAIR      62  62 100 CALM      29.92R
BEAVER COUNTY  NOT AVBL
BUTLER*        CLOUDY    63  62  97 W3        29.92S
PITTSBURGH INT CLOUDY    66  64  93 NW6       29.91S
PITTSBURGH     CLOUDY    65  61  87 NW5       29.90S
INDIANA*       MOCLDY    66  64  94 CALM      29.93S
LATROBE        CLOUDY    66  66 100 CALM      29.91S
WASHINGTON CO* PTCLDY    66  61  82 CALM      29.91S
$$

PAZ004>006-010>012-017>019-024>028-033>037-041-042-045-046-049>053-230900-
CENTRAL PENNSYLVANIA

CITY           SKY/WX    TMP DP  RH WIND       PRES   REMARKS
BRADFORD       PTCLDY    54  54 100 CALM      29.90S FOG
DUBOIS         PTCLDY    61  57  87 W5        29.90R
CLEARFIELD     CLOUDY    65  62  90 CALM      29.89S
JOHNSTOWN      CLOUDY    64  62  93 NW9       29.92S
ALTOONA        CLOUDY    68  64  87 N7        29.89S
STATE COLLEGE  PTCLDY    66  63  89 NW7       29.87R
WILLIAMSPORT   CLOUDY    70  67  90 W8        29.80S
SELINSGROVE    MOCLDY    72  66  81 NW7       29.81S
FT INDIANTOWN  MOCLDY    71  71 100 S5        29.80R
CAPITAL CITY   MOCLDY    74  69  85 W6        29.80S
HARRISBURG     MOCLDY    75  71  87 NW7       29.79S
YORK           CLOUDY    72  71  97 W5        29.81S
$$

PAZ038>040-043-044-047-048-054-055-060>062-067>071-230900-
EASTERN PENNSYLVANIA

CITY           SKY/WX    TMP DP  RH WIND       PRES   REMARKS
SCRANTON       CLOUDY    71  68  90 NW13      29.81R THUNDER
MOUNT POCONO   CLOUDY    67  66  97 W12       29.82S
ALLENTOWN      CLOUDY    74  70  87 SW8       29.78S
QUAKERTOWN*    CLOUDY    72  72 100 CALM      29.80S
READING        CLOUDY    73  73 100 SW3       29.77F
LANCASTER      CLOUDY    73  73 100 W3        29.79F
COATESVILLE    CLOUDY    72  72 100 CALM      29.82S
POTTSTOWN      MOCLDY    71  71 100 CALM      29.80F
BLUE BELL      CLOUDY    72  72 100 CALM      29.79F
DOYLESTOWN     PTCLDY    72  71  97 SW5       29.78F
WILLOW GROVE   NOT AVBL
NORTH PHILA    CLOUDY    77  72  84 W3        29.79F
PHILADELPHIA   CLOUDY    76  72  87 W6        29.78F
$$



USA.gov is the U.S. government's official web portal to all federal, state and local government web resources and services.